| time (UTC) | temp F | wind direction | speed MPH | gust MPH | rain 1hr in | rain 24hr in | rain mn in | humidity % | barometer mb |
| 20260505054518 | 55 | 266 | 0.0 | 0.0 | 0.00 | 0.00 | 0.00 | 81 | 1012.6 |
| 20260505053043 | 55 | 266 | 0.0 | 0.0 | 0.00 | 0.00 | 0.00 | 80 | 1012.7 |
| 20260505051511 | 56 | 266 | 0.0 | 0.0 | 0.00 | 0.00 | 0.00 | 78 | 1012.9 |
| 20260505041600 | 60 | 266 | 0.0 | 0.0 | 0.00 | 0.00 | 0.00 | 68 | 1012.7 |
| 20260505040021 | 62 | 266 | 0.0 | 0.0 | 0.00 | 0.00 | 0.00 | 65 | 1012.6 |
| 20260505034548 | 64 | 266 | 0.0 | 1.0 | 0.00 | 0.00 | 0.00 | 60 | 1012.5 |
| 20260505033019 | 66 | 269 | 0.0 | 1.0 | 0.00 | 0.00 | 0.00 | 57 | 1012.5 |
| 20260505031547 | 66 | 245 | 0.0 | 2.0 | 0.00 | 0.00 | 0.00 | 56 | 1012.4 |
| 20260505030012 | 66 | 228 | 0.0 | 1.0 | 0.00 | 0.00 | 0.00 | 55 | 1012.4 |
| 20260505024549 | 67 | 156 | 0.0 | 1.0 | 0.00 | 0.00 | 0.00 | 54 | 1012.4 |
| 20260505023014 | 66 | 243 | 0.0 | 1.0 | 0.00 | 0.00 | 0.00 | 55 | 1012.5 |
| 20260505021545 | 66 | 338 | 0.0 | 0.0 | 0.00 | 0.00 | 0.00 | 56 | 1012.5 |
| 20260505020014 | 66 | 333 | 0.0 | 0.0 | 0.00 | 0.00 | 0.00 | 55 | 1012.4 |
| 20260505014602 | 67 | 339 | 0.0 | 0.0 | 0.00 | 0.00 | 0.00 | 54 | 1012.2 |
| 20260505013008 | 67 | 160 | 0.0 | 0.0 | 0.00 | 0.00 | 0.00 | 54 | 1012.0 |
| 20260505011541 | 68 | 160 | 0.0 | 0.0 | 0.00 | 0.00 | 0.00 | 52 | 1012.0 |
| 20260505010003 | 69 | 160 | 0.0 | 0.0 | 0.00 | 0.00 | 0.00 | 51 | 1011.9 |
| 20260505004545 | 70 | 160 | 0.0 | 0.0 | 0.00 | 0.00 | 0.00 | 48 | 1011.7 |
| 20260505003002 | 72 | 160 | 0.0 | 0.0 | 0.00 | 0.00 | 0.00 | 46 | 1011.6 |
| 20260505001529 | 72 | 166 | 0.0 | 1.0 | 0.00 | 0.00 | 0.00 | 45 | 1011.6 |
| 20260504234527 | 72 | 219 | 0.0 | 2.0 | 0.00 | 0.00 | 0.00 | 43 | 1011.5 |
| 20260504233058 | 73 | 156 | 0.0 | 3.0 | 0.00 | 0.00 | 0.00 | 42 | 1011.4 |
| 20260504231526 | 75 | 176 | 0.0 | 4.0 | 0.00 | 0.00 | 0.00 | 40 | 1011.4 |
| 20260504230059 | 75 | 174 | 1.0 | 7.0 | 0.00 | 0.00 | 0.00 | 40 | 1011.4 |
| 20260504224523 | 75 | 200 | 1.0 | 5.0 | 0.00 | 0.00 | 0.00 | 39 | 1011.4 |
| 20260504223102 | 77 | 228 | 1.0 | 6.0 | 0.00 | 0.00 | 0.00 | 37 | 1011.3 |
| 20260504221514 | 77 | 276 | 1.0 | 11.0 | 0.00 | 0.00 | 0.00 | 38 | 1011.3 |
| 20260504220042 | 77 | 209 | 1.0 | 10.0 | 0.00 | 0.00 | 0.00 | 37 | 1011.3 |
| 20260504214507 | 77 | 267 | 2.0 | 8.0 | 0.00 | 0.00 | 0.00 | 36 | 1011.3 |
| 20260504213033 | 76 | 190 | 2.0 | 9.0 | 0.00 | 0.00 | 0.00 | 37 | 1011.3 |
| 20260504211652 | 76 | 155 | 2.0 | 10.0 | 0.00 | 0.00 | 0.00 | 36 | 1011.2 |
| 20260504210028 | 77 | 193 | 1.0 | 10.0 | 0.00 | 0.00 | 0.00 | 36 | 1011.2 |
| 20260504204556 | 78 | 238 | 1.0 | 7.0 | 0.00 | 0.00 | 0.00 | 36 | 1011.3 |
| 20260504203021 | 78 | 255 | 1.0 | 9.0 | 0.00 | 0.00 | 0.00 | 35 | 1011.5 |
| 20260504201654 | 77 | 135 | 1.0 | 10.0 | 0.00 | 0.00 | 0.00 | 37 | 1011.9 |
| 20260504200023 | 77 | 286 | 1.0 | 5.0 | 0.00 | 0.00 | 0.00 | 36 | 1012.0 |
| 20260504194555 | 76 | 276 | 0.0 | 8.0 | 0.00 | 0.00 | 0.00 | 37 | 1012.1 |
| 20260504193014 | 76 | 250 | 1.0 | 6.0 | 0.00 | 0.00 | 0.00 | 38 | 1012.5 |
| 20260504191556 | 76 | 255 | 1.0 | 8.0 | 0.00 | 0.00 | 0.00 | 39 | 1012.8 |
| 20260504190007 | 75 | 209 | 0.0 | 11.0 | 0.00 | 0.00 | 0.00 | 39 | 1012.9 |
| 20260504184545 | 76 | 73 | 2.0 | 6.0 | 0.00 | 0.00 | 0.00 | 38 | 1013.2 |
| 20260504183100 | 75 | 200 | 1.0 | 7.0 | 0.00 | 0.00 | 0.00 | 40 | 1013.4 |
| 20260504181521 | 74 | 300 | 2.0 | 7.0 | 0.00 | 0.00 | 0.00 | 40 | 1013.5 |
| 20260504180049 | 74 | 153 | 1.0 | 7.0 | 0.00 | 0.00 | 0.00 | 40 | 1013.9 |
| 20260504174514 | 74 | 143 | 1.0 | 5.0 | 0.00 | 0.00 | 0.00 | 38 | 1014.0 |
| 20260504173045 | 73 | 189 | 3.0 | 10.0 | 0.00 | 0.00 | 0.00 | 38 | 1014.0 |
| 20260504171602 | 72 | 97 | 3.0 | 7.0 | 0.00 | 0.00 | 0.00 | 37 | 1014.2 |
| 20260504081519 | 45 | 255 | 0.0 | 0.0 | 0.00 | 0.00 | 0.00 | 87 | 1017.4 |